Time,TemperatureF,DewpointF,PressureIn,WindDirection,WindDirectionDegrees,WindSpeedMPH,WindSpeedGustMPH,Humidity,HourlyPrecipIn,Conditions,Clouds,dailyrainin,SoftwareType,DateUTC
2013-03-11 00:10:00,51.1,38.0,30.04,SSW,195,0.0,1.0,61,0.00,,,0.00,weatherlink.com 1.10,2013-03-11 04:10:00,
2013-03-11 00:25:00,51.2,36.0,30.03,NW,318,0.0,3.0,57,0.00,,,0.00,weatherlink.com 1.10,2013-03-11 04:25:00,
2013-03-11 00:40:00,51.4,38.0,30.02,NW,318,0.0,1.0,60,0.00,,,0.00,weatherlink.com 1.10,2013-03-11 04:40:00,
2013-03-11 00:55:00,51.4,37.0,30.02,ENE,76,1.0,1.0,58,0.00,,,0.00,weatherlink.com 1.10,2013-03-11 04:55:00,
2013-03-11 01:10:00,51.3,36.0,30.01,NNE,27,0.0,2.0,57,0.00,,,0.00,weatherlink.com 1.10,2013-03-11 05:10:00,
2013-03-11 01:25:00,51.6,36.0,30.01,NE,46,0.0,1.0,56,0.00,,,0.00,weatherlink.com 1.10,2013-03-11 05:25:00,
2013-03-11 01:40:00,52.4,37.0,30.00,ESE,115,1.0,1.0,57,0.00,,,0.00,weatherlink.com 1.10,2013-03-11 05:40:00,
2013-03-11 01:55:00,53.9,35.0,30.00,East,98,0.0,6.0,49,0.00,,,0.00,weatherlink.com 1.10,2013-03-11 05:55:00,
2013-03-11 02:10:00,55.3,34.0,29.99,NE,50,1.0,4.0,45,0.00,,,0.00,weatherlink.com 1.10,2013-03-11 06:10:00,
2013-03-11 02:25:00,55.6,34.0,29.99,ENE,62,0.0,2.0,44,0.00,,,0.00,weatherlink.com 1.10,2013-03-11 06:25:00,
2013-03-11 02:40:00,55.5,33.0,29.99,NNE,30,0.0,2.0,43,0.00,,,0.00,weatherlink.com 1.10,2013-03-11 06:40:00,
2013-03-11 02:55:00,56.0,33.0,29.98,WNW,294,0.0,3.0,42,0.00,,,0.00,weatherlink.com 1.10,2013-03-11 06:55:00,
2013-03-11 03:10:00,56.2,33.0,29.97,NE,50,1.0,3.0,42,0.00,,,0.00,weatherlink.com 1.10,2013-03-11 07:10:00,
2013-03-11 03:25:00,56.4,33.0,29.96,East,80,2.0,5.0,41,0.00,,,0.00,weatherlink.com 1.10,2013-03-11 07:25:00,
2013-03-11 03:40:00,56.5,33.0,29.96,NNE,12,3.0,7.0,41,0.00,,,0.00,weatherlink.com 1.10,2013-03-11 07:40:00,
2013-03-11 03:55:00,56.5,32.0,29.95,NE,53,1.0,3.0,40,0.00,,,0.00,weatherlink.com 1.10,2013-03-11 07:55:00,
2013-03-11 04:10:00,56.3,33.0,29.94,ENE,61,2.0,4.0,41,0.00,,,0.00,weatherlink.com 1.10,2013-03-11 08:10:00,
2013-03-11 04:40:00,56.8,32.0,29.92,ENE,71,2.0,6.0,39,0.00,,,0.00,weatherlink.com 1.10,2013-03-11 08:40:00,
2013-03-11 04:55:00,56.9,31.0,29.92,NNE,22,1.0,5.0,38,0.00,,,0.00,weatherlink.com 1.10,2013-03-11 08:55:00,
2013-03-11 05:10:00,57.2,32.0,29.91,ENE,60,2.0,6.0,38,0.00,,,0.00,weatherlink.com 1.10,2013-03-11 09:10:00,
2013-03-11 05:25:00,57.2,32.0,29.91,ENE,73,3.0,4.0,38,0.00,,,0.00,weatherlink.com 1.10,2013-03-11 09:25:00,
2013-03-11 05:41:00,56.6,31.0,29.91,ENE,72,2.0,5.0,38,0.00,,,0.00,weatherlink.com 1.10,2013-03-11 09:41:00,
2013-03-11 05:56:00,56.3,31.0,29.91,ENE,58,1.0,3.0,39,0.00,,,0.00,weatherlink.com 1.10,2013-03-11 09:56:00,
2013-03-11 06:11:00,55.5,32.0,29.91,ESE,103,3.0,6.0,41,0.00,,,0.00,weatherlink.com 1.10,2013-03-11 10:11:00,
2013-03-11 06:26:00,55.1,33.0,29.91,East,79,1.0,6.0,44,0.00,,,0.00,weatherlink.com 1.10,2013-03-11 10:26:00,
2013-03-11 06:41:00,-999.0,-99.9,29.92,North,-999,-999.0,-999.0,-999,0.00,,,0.00,weatherlink.com 1.10,2013-03-11 10:41:00,
2013-03-11 06:56:00,-999.0,-99.9,29.91,North,-999,-999.0,-999.0,-999,0.00,,,0.00,weatherlink.com 1.10,2013-03-11 10:56:00,
2013-03-11 07:11:00,-999.0,-99.9,29.91,North,-999,-999.0,-999.0,-999,0.00,,,0.00,weatherlink.com 1.10,2013-03-11 11:11:00,
2013-03-11 07:56:00,-999.0,-99.9,29.91,North,-999,-999.0,-999.0,-999,0.00,,,0.00,weatherlink.com 1.10,2013-03-11 11:56:00,
2013-03-11 08:11:00,-999.0,-99.9,29.91,North,-999,-999.0,-999.0,-999,0.00,,,0.00,weatherlink.com 1.10,2013-03-11 12:11:00,
2013-03-11 08:26:00,-999.0,-99.9,29.92,North,-999,-999.0,-999.0,-999,0.00,,,0.00,weatherlink.com 1.10,2013-03-11 12:26:00,
2013-03-11 08:41:00,-999.0,-99.9,29.92,North,-999,-999.0,-999.0,-999,0.00,,,0.00,weatherlink.com 1.10,2013-03-11 12:41:00,
2013-03-11 08:56:00,-999.0,-99.9,29.92,North,-999,-999.0,-999.0,-999,0.00,,,0.00,weatherlink.com 1.10,2013-03-11 12:56:00,
2013-03-11 09:11:00,54.3,35.0,29.92,SSW,201,0.0,2.0,49,0.00,,,0.00,weatherlink.com 1.10,2013-03-11 13:11:00,
2013-03-11 09:26:00,55.4,32.0,29.94,West,276,0.0,2.0,42,0.00,,,0.00,weatherlink.com 1.10,2013-03-11 13:26:00,
2013-03-11 09:41:00,56.0,37.0,29.94,SW,222,0.0,1.0,49,0.00,,,0.00,weatherlink.com 1.10,2013-03-11 13:41:00,
2013-03-11 09:56:00,56.9,34.0,29.94,NW,324,1.0,2.0,43,0.00,,,0.00,weatherlink.com 1.10,2013-03-11 13:56:00,
2013-03-11 10:11:00,56.8,35.0,29.93,SE,129,1.0,1.0,45,0.00,,,0.00,weatherlink.com 1.10,2013-03-11 14:11:00,
2013-03-11 10:26:00,57.2,34.0,29.92,SE,128,0.0,1.0,42,0.00,,,0.00,weatherlink.com 1.10,2013-03-11 14:26:00,
2013-03-11 10:41:00,58.4,34.0,29.92,ESE,107,1.0,1.0,40,0.00,,,0.00,weatherlink.com 1.10,2013-03-11 14:41:00,
2013-03-11 11:11:00,60.5,35.0,29.91,NE,56,0.0,2.0,39,0.00,,,0.00,weatherlink.com 1.10,2013-03-11 15:11:00,
2013-03-11 11:27:00,61.3,35.0,29.91,West,260,1.0,2.0,38,0.00,,,0.00,weatherlink.com 1.10,2013-03-11 15:27:00,
2013-03-11 11:42:00,62.0,34.0,29.89,NNW,338,0.0,4.0,35,0.00,,,0.00,weatherlink.com 1.10,2013-03-11 15:42:00,
2013-03-11 11:57:00,62.9,35.0,29.89,North,349,1.0,3.0,35,0.00,,,0.00,weatherlink.com 1.10,2013-03-11 15:57:00,
2013-03-11 12:12:00,63.6,34.0,29.88,East,82,0.0,3.0,33,0.00,,,0.00,weatherlink.com 1.10,2013-03-11 16:12:00,
2013-03-11 12:27:00,63.8,35.0,29.87,NNE,12,1.0,7.0,34,0.00,,,0.00,weatherlink.com 1.10,2013-03-11 16:27:00,
2013-03-11 12:42:00,63.8,33.0,29.87,SSE,167,2.0,2.0,32,0.00,,,0.00,weatherlink.com 1.10,2013-03-11 16:42:00,
2013-03-11 12:57:00,63.3,34.0,29.86,NE,36,2.0,3.0,33,0.00,,,0.00,weatherlink.com 1.10,2013-03-11 16:57:00,
2013-03-11 13:12:00,62.8,32.0,29.85,NE,52,2.0,5.0,31,0.00,,,0.00,weatherlink.com 1.10,2013-03-11 17:12:00,
2013-03-11 13:27:00,62.8,31.0,29.86,WNW,289,4.0,5.0,30,0.00,,,0.00,weatherlink.com 1.10,2013-03-11 17:27:00,
2013-03-11 13:42:00,62.4,32.0,29.85,WSW,243,0.0,5.0,32,0.00,,,0.00,weatherlink.com 1.10,2013-03-11 17:42:00,
2013-03-11 13:57:00,62.2,35.0,29.83,ENE,59,0.0,8.0,36,0.00,,,0.00,weatherlink.com 1.10,2013-03-11 17:57:00,
2013-03-11 14:12:00,62.7,38.0,29.83,NE,47,1.0,3.0,40,0.00,,,0.00,weatherlink.com 1.10,2013-03-11 18:12:00,
2013-03-11 14:27:00,62.6,38.0,29.83,ENE,65,5.0,10.0,41,0.00,,,0.00,weatherlink.com 1.10,2013-03-11 18:27:00,
2013-03-11 14:42:00,62.3,38.0,29.84,NNW,343,3.0,9.0,41,0.00,,,0.00,weatherlink.com 1.10,2013-03-11 18:42:00,
2013-03-11 14:57:00,62.3,40.0,29.83,SW,229,1.0,7.0,44,0.00,,,0.00,weatherlink.com 1.10,2013-03-11 18:57:00,
2013-03-11 15:12:00,61.9,41.0,29.82,NW,320,1.0,8.0,46,0.00,,,0.00,weatherlink.com 1.10,2013-03-11 19:12:00,
2013-03-11 15:27:00,61.3,39.0,29.82,West,278,4.0,8.0,44,0.00,,,0.00,weatherlink.com 1.10,2013-03-11 19:27:00,
2013-03-11 15:42:00,60.9,40.0,29.81,NE,44,2.0,2.0,47,0.00,,,0.00,weatherlink.com 1.10,2013-03-11 19:42:00,
2013-03-11 15:57:00,60.5,40.0,29.79,NE,41,1.0,6.0,48,0.00,,,0.00,weatherlink.com 1.10,2013-03-11 19:57:00,
2013-03-11 16:12:00,60.1,40.0,29.75,ESE,115,6.0,10.0,48,0.00,,,0.00,weatherlink.com 1.10,2013-03-11 20:12:00,
2013-03-11 16:27:00,59.8,40.0,29.78,NE,47,1.0,10.0,49,0.00,,,0.00,weatherlink.com 1.10,2013-03-11 20:27:00,
2013-03-11 16:42:00,59.5,41.0,29.78,North,349,2.0,7.0,50,0.00,,,0.00,weatherlink.com 1.10,2013-03-11 20:42:00,
2013-03-11 16:57:00,59.5,41.0,29.78,ENE,76,2.0,14.0,51,0.00,,,0.00,weatherlink.com 1.10,2013-03-11 20:57:00,
2013-03-11 17:12:00,59.1,42.0,29.77,North,6,2.0,6.0,53,0.00,,,0.00,weatherlink.com 1.10,2013-03-11 21:12:00,
2013-03-11 17:27:00,58.9,42.0,29.76,NNW,333,2.0,8.0,53,0.00,,,0.00,weatherlink.com 1.10,2013-03-11 21:27:00,
2013-03-11 17:42:00,58.7,42.0,29.75,North,353,0.0,5.0,55,0.00,,,0.00,weatherlink.com 1.10,2013-03-11 21:42:00,
2013-03-11 17:57:00,58.6,42.0,29.76,NNW,336,3.0,14.0,54,0.00,,,0.00,weatherlink.com 1.10,2013-03-11 21:57:00,
2013-03-11 18:12:00,58.6,42.0,29.74,North,7,5.0,6.0,55,0.00,,,0.00,weatherlink.com 1.10,2013-03-11 22:12:00,
2013-03-11 18:27:00,58.2,43.0,29.75,WNW,289,0.0,4.0,57,0.00,,,0.00,weatherlink.com 1.10,2013-03-11 22:27:00,
2013-03-11 18:42:00,58.1,43.0,29.75,ENE,61,5.0,5.0,57,0.00,,,0.00,weatherlink.com 1.10,2013-03-11 22:42:00,
2013-03-11 18:57:00,57.9,43.0,29.75,ENE,70,3.0,6.0,58,0.00,,,0.00,weatherlink.com 1.10,2013-03-11 22:57:00,
2013-03-11 19:12:00,57.9,43.0,29.76,North,6,1.0,8.0,58,0.00,,,0.00,weatherlink.com 1.10,2013-03-11 23:12:00,
2013-03-11 19:27:00,57.5,44.0,29.75,NW,322,1.0,2.0,60,0.00,,,0.00,weatherlink.com 1.10,2013-03-11 23:27:00,
2013-03-11 19:42:00,57.7,43.0,29.75,East,92,12.0,16.0,59,0.00,,,0.00,weatherlink.com 1.10,2013-03-11 23:42:00,
2013-03-11 19:57:00,58.0,44.0,29.74,North,354,0.0,3.0,59,0.00,,,0.00,weatherlink.com 1.10,2013-03-11 23:57:00,
2013-03-11 20:12:00,57.8,44.0,29.75,NNW,338,1.0,6.0,60,0.00,,,0.00,weatherlink.com 1.10,2013-03-12 00:12:00,
2013-03-11 20:27:00,58.6,45.0,29.75,NNE,18,2.0,7.0,60,0.00,,,0.00,weatherlink.com 1.10,2013-03-12 00:27:00,
2013-03-11 20:57:00,58.9,45.0,29.76,North,6,3.0,12.0,61,0.00,,,0.00,weatherlink.com 1.10,2013-03-12 00:57:00,
2013-03-11 21:12:00,59.1,46.0,29.77,SW,233,3.0,9.0,62,0.00,,,0.00,weatherlink.com 1.10,2013-03-12 01:12:00,
2013-03-11 21:27:00,59.1,47.0,29.75,West,281,2.0,7.0,64,0.00,,,0.00,weatherlink.com 1.10,2013-03-12 01:27:00,
2013-03-11 21:42:00,58.7,47.0,29.75,NNW,346,1.0,7.0,66,0.00,,,0.00,weatherlink.com 1.10,2013-03-12 01:42:00,
2013-03-11 21:57:00,58.3,48.0,29.75,NNW,327,2.0,11.0,68,0.00,,,0.00,weatherlink.com 1.10,2013-03-12 01:57:00,
2013-03-11 22:12:00,58.0,48.0,29.75,West,274,1.0,7.0,69,0.00,,,0.00,weatherlink.com 1.10,2013-03-12 02:12:00,
2013-03-11 22:27:00,58.0,48.0,29.75,NW,314,5.0,7.0,69,0.00,,,0.00,weatherlink.com 1.10,2013-03-12 02:27:00,
2013-03-11 22:42:00,57.8,48.0,29.76,West,281,0.0,4.0,71,0.00,,,0.00,weatherlink.com 1.10,2013-03-12 02:42:00,
2013-03-11 22:58:00,55.5,50.0,29.76,NNW,338,1.0,3.0,82,0.00,,,0.00,weatherlink.com 1.10,2013-03-12 02:58:00,
2013-03-11 23:13:00,53.7,50.0,29.76,SW,225,2.0,2.0,88,0.02,,,0.02,weatherlink.com 1.10,2013-03-12 03:13:00,
2013-03-11 23:28:00,52.5,50.0,29.76,SW,232,0.0,1.0,91,0.03,,,0.03,weatherlink.com 1.10,2013-03-12 03:28:00,
2013-03-11 23:43:00,52.0,50.0,29.76,West,271,0.0,1.0,93,0.05,,,0.05,weatherlink.com 1.10,2013-03-12 03:43:00,
2013-03-11 23:58:00,51.8,50.0,29.76,NW,316,1.0,1.0,94,0.04,,,0.05,weatherlink.com 1.10,2013-03-12 03:58:00,